Location: Arboyeti
(42.1122°N, 44.6017°E)
Time: 10:49:27
(UTC+00:00)

Cosmos 44 - Pass Details

Date: 19 April 2021
Orbit: 571 x 791 km, 65.1° (Epoch: 05 May)

Event Time Altitude Azimuth Distance (km) Brightness Sun altitude
Rises 16:26:32 0° 196° (SSW) 3,056 6.5 -7.7°
Reaches altitude 10° 16:28:51 10° 191° (S) 2,178 5.7 -8.1°
Maximum altitude 16:33:41 51° 116° (ESE) 930 3.6 -8.9°
Drops below altitude 10° 16:38:49 10° 42° (NE) 2,313 5.8 -9.7°
Sets 16:41:20 0° 38° (NE) 3,264 6.6 -10.2°
